Regional Weather Roundup
Issued by NWS

Home | Current Version | Previous Version | Graphics & Text | Print | Product List | Glossary On
Versions: 1 2 3 4 5 6 7 8 9 10 11 12 13 14 15 16 17 18 19 20 21 22 23 24 25 26 27 28 29 30 31 32 33 34 35 36 37 38 39 40 41 42 43 44 45 46 47 48 49 50
000
ASUS45 KSLC 270810
RWRUT

UTAH REGIONAL WEATHER ROUNDUP
NATIONAL WEATHER SERVICE SALT LAKE CITY UT
100 AM MST MON FEB 27 2017

UTZ001>011-023>025-270900-

NORTHERN UTAH

CITY           SKY/WX    TMP DP  RH WIND       PRES   REMARKS
BRIGHAM CITY     N/A     35  28  73 CALM      29.62S
HILL AFB       CLOUDY    36  21  54 SW13      29.59F WCI  27
LOGAN          LGT SNOW  32  29  88 CALM      29.61F FOG
OGDEN          CLOUDY    36  22  56 CALM      29.60F
SALT LAKE CITY CLOUDY    40  21  46 S20G29    29.59F WCI  30
TOOELE VALLEY  CLOUDY    39  23  52 S25       29.60S WCI  28
WENDOVER       CLOUDY    34  28  80 S5        29.64S WCI  30
HEBER CITY     CLOUDY    36  18  48 SW15G26   29.62F WCI  26
WEST JORDAN    CLOUDY    40  29  65 SE21      29.62S WCI  30

$$

UTZ011>015-024>027-270900-

CENTRAL/NORTHEAST UTAH

CITY           SKY/WX    TMP DP  RH WIND       PRES   REMARKS
PROVO AIRPORT  CLOUDY    39  22  50 S10       29.68R WCI  32
MOAB/CANYONLAN MOCLDY    38  16  40 S10       29.72F WCI  31
DELTA          MOCLDY    34  25  69 S18G24    29.69R WCI  23
PRICE          MOCLDY    28  19  69 E5        29.69F WCI  23
RICHFIELD      CLEAR     37  19  48 SW13G20   29.71  WCI  29
ROOSEVELT      CLOUDY    27  19  74 CALM      29.74F
VERNAL         CLOUDY    22  14  71 W5        29.72F WCI  16

$$

UTZ013>016-019>022-027-270900-

SOUTHERN UTAH

CITY           SKY/WX    TMP DP  RH WIND       PRES   REMARKS
BRYCE CANYON   CLOUDY    27  19  72 SE9G18    29.76F WCI  18
CEDAR CITY     CLOUDY    37  23  56 SW22G28   29.72R WCI  26
MILFORD        CLOUDY    33  24  69 SW7       29.71F WCI  27
ST GEORGE      CLOUDY    47  30  51 SE12      29.81F
HANKSVILLE     PTCLDY    43  19  39 SW10G20   29.73F
KANAB          CLOUDY    41  27  56 SW12      29.86
BLANDING       MOCLDY    32  20  62 SE7       29.89S WCI  26

$$

REGIONAL REPORTS     COLORADO/ARIZONA

CITY           SKY/WX    TMP DP  RH WIND       PRES   REMARKS
CRAIG, CO      CLOUDY    20   8  60 CALM      29.72F
GRAND JUNCTION CLOUDY    39  13  34 S22       29.76F WCI  29
RIFLE, CO      CLOUDY    28  15  58 W5        29.76F WCI  23
MONTROSE, CO   CLOUDY    32  10  40 SE8       29.81F WCI  25
CORTEZ, CO     CLOUDY    37  17  44 SW5       29.86S WCI  33
COLORADO CITY  CLOUDY    41  30  65 S3        29.85F
PAGE, AZ       CLOUDY    45  20  36 S9        29.78F
GRAND CANYON   CLOUDY    32  26  78 SW12      29.87S WCI  23
KINGMAN, AZ    CLOUDY    47  22  37 S12       29.85S
FLAGSTAFF, AZ  CLOUDY    31  23  72 SW17      29.87F WCI  19

$$

REGIONAL REPORTS    NEVADA/IDAHO/WYOMING

CITY           SKY/WX    TMP DP  RH WIND       PRES   REMARKS
LAS VEGAS, NV  MOCLDY    51  32  48 S8        29.76F
ELY, NY        CLOUDY    30  20  66 S18       29.65S WCI  18
ELKO, NV       FLURRIES  28  25  88 S3        29.64F
POCATELLO, ID  LGT SNOW  26  24  92 S10       29.64F FOG     WCI  16
BURLEY, ID     CLOUDY    30  24  78 S9        29.63F WCI  22
FORT BRIDGER,  PTSUNNY   14   6  69 CALM      29.62F
EVANSTON, WY   CLOUDY    24  17  74 SW23      29.55F WCI   9
ROCK SPRINGS,  CLOUDY    12   2  64 N6        29.62F WCI   3

$$



USA.gov is the U.S. government's official web portal to all federal, state and local government web resources and services.